Fayetteville, AR

4:51 PM CDT on September 22, 2017 (GMT -0500)
Drake

Weather History for KFYV - March, 2013

Change the Weather History Date:

Sunday, March 17, 2013

  Actual Average Record
Temperature  
Mean Temperature 49 °F 48 °F  
Max Temperature 56 °F 61 °F 82 °F (1982)
Min Temperature 42 °F 37 °F 21 °F (1962)
Degree Days  
Heating Degree Days 16 17  
Month to date heating degree days 341 322  
Since 1 July heating degree days 3412 3625  
Cooling Degree Days 0 0  
Month to date cooling degree days 1 0  
Year to date cooling degree days 1 0  
Moisture  
Dew Point 45 °F    
Average Humidity 80    
Maximum Humidity 100    
Minimum Humidity 59    
Precipitation  
Precipitation 0.11 in 0.14 in 1.52 in (1953)
Month to date precipitation 1.97 2.09  
Year to date precipitation 7.82 7.74  
Sea Level Pressure  
Sea Level Pressure 29.75 in    
Wind  
Wind Speed 7 mph (NE)    
Max Wind Speed 15 mph    
Max Gust Speed 26 mph    
Visibility 6 miles    
Events Rain    
T = Trace of Precipitation, MM = Missing Value Source: NWS Daily Summary

Daily Weather History Graph

Daily Weather History Graph

Search for Another Location

Airport or City:

Trip Planner

Search our weather history database for the weather conditions in past years. The results will help you decide how hot, cold, wet, or windy it might be!

Date:

Astronomy

Mar. 17, 2013 Rise Set
Actual Time 7:24 AM CDT 7:26 PM CDT
Civil Twilight 6:58 AM CDT 7:51 PM CDT
Nautical Twilight 6:28 AM CDT 8:21 PM CDT
Astronomical Twilight 5:58 AM CDT 8:51 PM CDT
Moon 10:47 AM CDT (3/17) 12:24 AM CDT (3/17)
Length of Visible Light 12h 53m
Length of Day
12h 01m
Waxing Crescent, 31% of the Moon is Illuminated
Mar 17
Waxing Crescent
Mar 19
First Quarter
Mar 27
Full
Apr 2
Last Quarter
Apr 10
New

Hourly Weather History & Observations

Time (CDT) Temp. Windchill Dew Point Humidity Pressure Visibility Wind Dir Wind Speed Gust Speed Precip Events Conditions
12:53 AM 55.0 °F - 41.0 °F 59% 29.79 in 10.0 mi ENE 3.5 mph - N/A   Overcast
1:53 AM 55.0 °F - 42.1 °F 62% 29.79 in 10.0 mi NE 5.8 mph - N/A   Overcast
2:53 AM 52.0 °F - 41.0 °F 66% 29.78 in 10.0 mi NNE 4.6 mph - N/A   Overcast
3:53 AM 50.0 °F - 39.9 °F 68% 29.79 in 10.0 mi NNE 8.1 mph - N/A   Overcast
4:53 AM 46.4 °F 42.4 °F 39.2 °F 76% 29.80 in 9.0 mi NE 8.1 mph - N/A   Mostly Cloudy
5:53 AM 48.0 °F - 39.0 °F 71% 29.79 in 9.0 mi ENE 9.2 mph - N/A   Overcast
6:53 AM 45.0 °F 40.6 °F 39.0 °F 80% 29.83 in 5.0 mi NE 8.1 mph 16.1 mph 0.00 in Rain Light Rain
7:25 AM 42.8 °F 39.3 °F 41.0 °F 93% 29.86 in 2.5 mi NE 5.8 mph - 0.00 in Rain Light Rain
7:34 AM 42.8 °F 37.5 °F 41.0 °F 93% 29.86 in 2.5 mi NE 9.2 mph - 0.01 in Rain Light Rain
7:53 AM 42.1 °F 37.1 °F 41.0 °F 96% 29.85 in 1.8 mi ENE 8.1 mph 16.1 mph 0.01 in Rain Light Rain
8:50 AM 42.8 °F 35.4 °F 41.0 °F 93% 29.86 in 2.0 mi ENE 15.0 mph 21.9 mph 0.01 in   Overcast
8:53 AM 42.1 °F 35.2 °F 41.0 °F 96% 29.85 in 2.0 mi ENE 12.7 mph 21.9 mph 0.01 in   Overcast
9:53 AM 42.1 °F 36.1 °F 41.0 °F 96% 29.85 in 2.0 mi ENE 10.4 mph 18.4 mph 0.01 in Rain Light Rain
10:53 AM 43.0 °F 37.2 °F 41.0 °F 93% 29.83 in 3.0 mi East 10.4 mph 17.3 mph 0.00 in   Overcast
11:53 AM 44.1 °F 39.5 °F 42.1 °F 93% 29.81 in 4.0 mi ENE 8.1 mph - N/A   Overcast
12:53 PM 46.0 °F 42.5 °F 44.1 °F 93% 29.77 in 8.0 mi East 6.9 mph - N/A   Overcast
1:53 PM 46.9 °F - 45.0 °F 93% 29.75 in 5.0 mi ENE 6.9 mph - N/A   Overcast
2:53 PM 48.9 °F - 48.0 °F 97% 29.70 in 6.0 mi East 8.1 mph - 0.00 in   Overcast
3:00 PM 50.0 °F - 48.2 °F 94% 29.70 in 7.0 mi East 8.1 mph - N/A   Overcast
3:53 PM 51.1 °F - 50.0 °F 96% 29.67 in 8.0 mi Calm Calm - 0.01 in Rain Light Rain
4:53 PM 51.1 °F - 51.1 °F 100% 29.66 in 2.5 mi NW 5.8 mph - 0.03 in Rain Rain
5:14 PM 51.8 °F - 50.0 °F 94% 29.67 in 5.0 mi West 8.1 mph - 0.03 in Rain Rain
5:25 PM 51.8 °F - 50.0 °F 94% 29.67 in 5.0 mi WSW 4.6 mph - 0.04 in Rain Light Rain
5:44 PM 51.8 °F - 50.0 °F 94% 29.67 in 2.5 mi WSW 4.6 mph - 0.04 in   Overcast
5:53 PM 51.1 °F - 50.0 °F 96% 29.66 in 2.5 mi South 5.8 mph - 0.04 in   Overcast
6:40 PM 50.0 °F - 48.2 °F 94% 29.68 in 2.5 mi WNW 4.6 mph - N/A   Overcast
6:53 PM 48.9 °F - 48.9 °F 100% 29.68 in 4.0 mi WNW 5.8 mph - N/A   Overcast
7:53 PM 48.9 °F - 48.9 °F 100% 29.70 in 5.0 mi NW 6.9 mph - N/A   Overcast
8:29 PM 48.2 °F - 48.2 °F 100% 29.68 in 6.0 mi WSW 3.5 mph - N/A   Overcast
8:53 PM 48.9 °F - 48.9 °F 100% 29.70 in 9.0 mi SW 4.6 mph - N/A   Overcast
9:03 PM 48.2 °F - 48.2 °F 100% 29.69 in 5.0 mi SSW 8.1 mph - N/A   Overcast
9:19 PM 48.2 °F - 48.2 °F 100% 29.69 in 2.5 mi SSW 5.8 mph - N/A   Overcast
9:29 PM 48.2 °F - 48.2 °F 100% 29.70 in 4.0 mi SW 5.8 mph - N/A   Overcast
9:46 PM 48.2 °F - 48.2 °F 100% 29.70 in 5.0 mi SW 4.6 mph - N/A   Overcast
9:53 PM 48.0 °F - 48.0 °F 100% 29.71 in 6.0 mi SW 4.6 mph - N/A   Overcast
10:22 PM 46.4 °F 45.2 °F 46.4 °F 100% 29.72 in 8.0 mi WSW 3.5 mph - N/A   Overcast
10:32 PM 46.4 °F - 46.4 °F 100% 29.72 in 8.0 mi North - - N/A   Overcast
10:53 PM 46.9 °F - 46.9 °F 100% 29.73 in 8.0 mi SW 6.9 mph - N/A   Overcast
11:53 PM 46.9 °F - 46.0 °F 97% 29.72 in 6.0 mi SSW 4.6 mph - N/A   Overcast